Current Conditions
Mostly Scattered
Clouds



Pressure
1021.92 (hPa) - 30.18 (inHG)
Visibility

10.0 (km) - 6.2 (miles)
   Temperature
12  °C
54°F
9  °C
Dewpoint
82  %
 Humidity
   Wind Speed
11  km/h
6  kts
7  mph
3.1  m/s
   Wind Direction
 250°
West South
West
   Airport Data
LEAS
Location Asturias 50 km (31.08 mi)
Metar :LEAS 072330Z 25006KT 9999 SCT052 12/09 Q1022 NOSIG
Sun 8th December 01:30 am
   Raw Metar Info
Raw METAR is the most common format in the world for the transmission of observational weather data. It is highly standardized through the International Civil Aviation Organization (ICAO), which allows it to be understood throughout most of the world.
   API Info
Data Provided by
https://www.checkwx.com/weather/LEAS
   © Info
CSS/SVG/PHP scripts were developed by weather34.com for use in the weather34 template © 2015-2019

Guide Info provided by Metar-Wikipedia